GFSGL_con_lsi_000.txt.gz
Lid_Strength_Index
23 23 23 23 23 23 23 22 22 21 20 20 19 19 18 18 17 17 17 17 17 16 16 16 15 13 11 8 5 6 9 9 12 11 9 9 8 2 4 1 5 2 5
23 23 24 24 23 23 23 22 22 22 21 20 19 19 19 19 18 18 18 16 16 17 17 16 15 12 11 10 6 6 8 9 10 12 9 9 10 2 3 2 3 2 4
24 25 25 24 24 24 23 23 22 22 21 21 20 21 20 19 19 18 17 16 16 17 17 17 16 14 12 11 7 7 8 8 9 11 11 10 9 2 3 4 3 3 4
25 26 25 25 24 24 24 23 23 23 22 22 22 21 21 20 19 17 16 16 17 17 17 16 16 14 13 11 10 8 8 11 12 12 12 10 9 3 4 5 5 4 5
26 26 26 25 25 24 24 24 24 23 23 23 22 22 22 20 18 17 17 17 17 18 17 16 15 13 12 11 10 8 8 11 13 13 13 12 7 4 5 5 5 5 5
27 26 26 26 25 25 25 25 25 25 24 24 23 22 22 19 16 15 15 16 16 16 15 15 14 13 11 10 9 7 7 11 13 14 14 13 8 4 4 5 5 6 8
26 27 27 27 27 27 27 27 27 26 25 24 23 23 22 20 17 16 15 16 16 16 15 15 14 13 12 11 9 7 8 8 10 13 14 14 6 4 5 6 6 6 8
27 28 28 28 28 28 28 28 27 26 25 24 24 22 21 20 18 16 15 16 15 15 15 15 14 14 13 11 10 9 9 11 11 12 12 12 11 3 4 4 5 6 6
28 28 28 29 30 30 31 29 27 26 26 25 23 22 22 22 18 16 16 16 15 14 14 14 14 14 12 11 11 11 11 12 10 11 11 10 9 5 4 5 8 9 9
29 29 29 29 31 31 30 29 27 27 25 24 23 21 21 22 18 16 16 16 15 15 14 14 13 14 12 10 10 12 14 14 13 13 13 8 6 6 6 5 6 8 9
29 30 30 30 32 31 29 28 28 27 25 25 22 20 20 19 20 17 15 15 16 16 15 14 14 12 11 10 10 12 13 12 13 14 14 8 7 6 6 6 5 7 8
30 31 32 33 33 29 30 29 28 27 26 24 21 20 19 19 19 17 16 14 14 16 15 13 13 12 11 11 11 11 11 12 13 14 15 9 8 7 6 6 6 6 5
34 35 36 32 30 29 30 29 28 27 25 23 20 21 21 20 20 18 17 14 14 15 14 14 12 12 12 12 11 11 12 12 14 14 15 9 7 6 6 7 7 7 7
35 31 29 30 30 29 28 26 27 26 25 21 21 22 22 20 21 19 18 17 15 16 16 16 15 14 14 13 13 11 13 13 14 14 13 9 8 8 8 8 8 8 9
32 29 30 30 31 29 27 28 25 23 20 20 20 20 22 22 21 18 17 18 17 16 15 16 16 16 16 13 12 12 13 13 13 13 11 10 9 9 9 8 8 9 10
31 30 30 29 29 28 29 28 23 20 18 16 16 17 19 18 18 18 17 17 16 16 19 19 17 17 18 14 13 13 13 13 13 11 10 10 10 10 10 9 9 9 10
35 31 31 29 30 30 30 30 30 25 19 18 18 17 16 18 19 19 19 19 18 21 24 24 23 22 23 21 20 16 13 13 11 10 10 10 10 10 10 10 10 10 10
40 32 34 33 32 32 31 31 30 29 28 27 23 20 18 19 19 20 20 23 26 24 25 24 24 23 24 23 23 22 21 15 11 10 10 10 10 10 11 11 10 10 10
34 35 36 36 34 33 32 32 30 30 28 28 27 24 21 20 21 22 22 27 27 27 26 25 23 23 24 24 24 24 23 23 11 10 10 11 11 11 10 10 10 10 10
38 31 33 38 36 34 32 32 31 30 29 29 28 29 22 26 28 28 28 28 28 27 26 25 23 23 24 24 25 25 25 23 13 11 11 11 11 11 11 11 10 10 10
37 38 33 38 38 37 36 35 33 32 31 30 29 28 19 28 28 28 29 29 28 27 26 26 23 23 23 24 24 26 26 25 23 14 11 11 11 11 11 10 11 11 11
37 39 40 40 35 33 35 34 34 33 33 32 30 28 22 28 28 28 28 28 28 27 25 24 24 22 22 24 24 25 26 26 25 24 20 11 11 11 11 11 11 11 11
34 34 36 36 36 34 34 36 34 33 32 33 31 30 29 29 28 28 28 28 27 27 25 24 24 22 22 22 23 23 26 26 26 24 23 18 11 11 11 11 11 12 11
34 34 34 37 37 38 37 37 34 33 33 33 33 31 31 30 29 28 28 28 27 26 25 24 23 24 21 22 23 22 23 24 24 24 23 19 12 11 11 11 11 11 11
39 36 36 38 43 40 39 38 34 38 36 33 33 32 31 30 30 29 28 28 27 26 26 25 23 23 21 21 23 22 21 24 25 24 24 23 22 19 14 12 12 12 12
37 36 38 38 39 41 41 38 39 36 37 33 33 33 31 30 30 30 29 28 28 27 26 25 23 24 22 20 21 22 21 21 24 24 24 25 25 25 23 21 18 15 13

GFSGL_con_lsi_003.txt.gz
Lid_Strength_Index
22 23 23 23 23 23 23 23 23 22 22 22 21 20 20 19 18 17 17 16 16 15 14 14 13 12 13 13 12 12 11 11 9 6 4 5 6 6 7 7 6 1 2
23 23 24 24 24 24 24 23 23 23 23 23 22 21 21 20 19 19 19 18 17 16 15 13 12 12 13 13 14 13 11 10 8 7 5 5 6 6 8 7 8 2 1
24 24 25 25 25 25 24 24 23 23 24 24 23 23 22 22 21 20 20 19 18 16 14 14 14 13 15 15 15 14 11 10 7 7 6 6 7 7 8 8 8 5 2
25 25 25 25 25 25 25 24 24 24 25 25 24 24 23 23 22 22 21 20 18 17 16 15 15 15 15 15 15 15 12 11 9 7 7 8 7 9 9 10 11 3 4
26 26 26 26 25 25 25 25 25 25 25 25 25 25 24 23 22 22 20 18 17 16 16 16 15 15 15 14 15 14 12 11 11 8 8 9 11 12 10 11 10 5 5
26 26 26 26 26 26 26 26 26 26 26 26 25 25 24 23 20 19 17 17 16 17 17 16 15 14 14 13 12 12 11 12 12 9 10 11 12 12 12 12 10 9 7
25 26 27 27 28 27 27 27 27 28 27 26 26 25 24 23 20 18 16 16 17 17 17 16 15 14 14 13 12 12 11 9 9 9 11 12 12 12 13 13 12 11 5
26 28 28 28 29 28 29 28 28 27 27 27 26 26 24 22 19 18 15 16 17 16 16 15 14 14 13 13 14 13 12 10 9 7 10 11 11 11 13 14 14 9 5
27 28 28 29 30 30 32 30 28 28 28 28 25 25 25 24 20 16 15 17 17 17 15 14 13 13 11 11 13 14 13 12 9 7 9 10 11 11 12 14 15 10 8
28 28 29 29 32 32 30 30 28 29 27 25 25 24 24 23 19 15 15 17 18 18 16 14 12 12 11 11 12 12 14 13 11 10 11 11 12 13 13 13 15 16 7
28 29 30 30 32 32 31 30 30 30 27 27 25 23 22 21 19 15 15 17 17 17 17 15 13 12 11 9 9 11 12 11 10 9 11 12 13 13 13 13 10 13 7
30 30 31 32 32 30 33 31 30 29 29 27 25 22 21 19 17 15 15 15 15 17 17 15 14 12 12 10 10 9 9 10 10 10 13 14 14 14 13 12 8 8 4
32 33 32 32 31 31 33 30 30 28 27 25 22 23 22 19 17 15 15 15 16 17 16 15 13 13 12 11 11 10 10 10 10 11 13 14 13 13 13 12 6 5 5
33 31 29 30 30 29 28 27 29 26 25 23 22 23 22 19 17 16 17 18 18 17 16 16 14 14 13 12 12 11 10 9 9 10 13 12 13 13 14 8 6 7 7
31 30 30 29 31 28 26 27 25 23 21 21 22 21 21 19 17 15 17 19 19 17 18 19 17 16 15 14 13 11 10 10 10 10 13 13 13 14 13 6 7 7 8
30 30 30 30 30 27 27 27 23 20 19 19 18 18 17 14 14 15 16 17 17 17 21 21 21 20 20 18 18 17 12 10 10 11 12 12 13 14 9 7 7 8 9
31 31 30 30 29 29 29 29 30 27 22 21 20 17 15 14 15 15 17 19 19 20 24 23 22 21 21 20 20 20 19 17 17 12 11 12 13 12 10 10 9 9 9
32 31 32 31 31 31 31 31 31 32 32 29 24 19 16 16 16 16 18 22 25 24 24 24 23 22 22 22 21 21 21 20 20 19 15 12 12 11 11 11 10 10 11
31 32 32 33 32 33 32 32 32 32 32 31 28 23 21 18 18 19 20 25 26 26 25 24 24 22 22 22 22 22 23 24 23 22 20 13 11 12 11 11 10 11 11
31 31 33 33 33 33 33 33 32 33 32 32 30 28 22 24 26 26 25 26 26 26 25 25 24 23 22 22 24 23 24 25 24 23 23 12 11 11 11 11 10 11 11
32 32 32 33 34 35 36 36 34 34 34 34 32 30 17 27 27 27 27 26 27 26 25 25 24 24 21 22 24 24 24 25 25 25 24 22 11 12 11 10 11 11 11
32 34 34 35 34 33 36 35 34 35 34 34 32 30 22 27 27 27 27 26 26 26 25 25 23 23 22 21 22 24 23 25 26 26 25 24 20 11 12 11 11 11 11
32 33 34 34 34 34 34 36 35 34 33 34 33 31 31 30 29 27 27 27 26 26 25 24 23 23 22 21 20 22 22 24 25 25 25 24 21 13 11 11 12 12 12
31 31 32 35 34 36 35 36 34 34 34 33 35 34 33 32 30 28 28 27 26 26 25 24 23 23 23 21 20 21 21 22 24 25 24 24 22 14 11 11 11 11 11
32 32 32 34 36 35 36 36 34 38 37 34 33 33 33 31 30 29 28 28 27 26 25 24 23 23 22 20 21 21 21 22 24 25 24 25 25 22 15 12 12 11 11
33 33 34 36 37 39 39 36 37 35 37 34 33 34 33 32 31 30 29 29 28 27 25 24 23 23 21 19 20 19 20 19 23 24 24 25 26 26 24 22 16 13 11

GFSGL_con_lsi_006.txt.gz
Lid_Strength_Index
18 19 19 19 19 20 20 19 20 20 20 20 20 20 20 19 18 18 18 18 18 17 16 16 15 14 14 13 11 10 9 10 13 13 11 7 8 6 4 3 4 4 4
19 19 20 19 20 20 20 20 20 21 20 20 21 21 21 20 20 20 20 19 19 19 18 18 17 16 15 12 12 11 11 11 11 14 10 9 8 7 4 5 4 4 4
20 20 20 20 21 21 21 21 21 21 21 21 21 22 22 21 21 20 21 21 21 20 19 19 18 17 16 14 14 13 12 11 11 13 13 9 8 6 3 4 5 5 6
21 21 21 21 21 21 22 22 22 22 22 22 22 22 22 22 21 21 21 21 20 19 18 18 17 17 16 16 15 14 13 13 13 14 14 10 10 5 4 5 6 6 8
21 21 21 21 22 22 22 22 23 23 23 23 23 23 22 22 21 21 20 20 19 18 18 17 16 15 15 14 14 14 14 14 15 14 13 12 11 7 6 5 8 8 8
21 21 22 23 23 23 23 24 24 24 23 23 23 23 22 22 20 19 18 18 18 18 18 17 15 15 15 13 13 12 12 14 15 15 14 13 12 8 6 7 8 10 13
22 22 23 24 24 24 24 25 25 24 24 24 23 23 23 22 20 18 18 18 18 17 17 15 14 14 14 14 13 13 12 11 11 12 13 13 12 10 7 7 9 11 13
23 24 24 24 25 25 25 25 25 24 24 24 24 24 23 22 19 19 17 17 17 17 16 15 15 15 14 13 13 13 13 13 13 12 12 11 9 8 8 7 9 13 13
24 24 25 25 26 26 27 26 25 25 25 25 24 23 24 23 20 18 17 17 17 17 16 14 15 15 14 13 14 14 12 11 11 11 11 10 8 7 6 8 11 14 15
24 24 25 25 27 27 26 26 25 26 25 24 24 23 23 23 20 17 16 17 18 17 15 14 14 15 14 13 14 13 12 11 11 12 11 11 9 7 7 8 11 14 14
24 25 26 26 27 27 27 26 26 26 25 26 25 23 21 19 19 16 15 16 16 15 15 16 16 15 14 13 12 12 11 10 11 12 11 11 9 8 8 9 12 13 14
26 26 27 28 26 26 29 27 27 26 26 25 23 21 20 19 17 16 15 15 13 15 17 17 17 15 13 12 12 11 10 10 10 11 12 11 10 9 9 10 12 12 13
27 29 29 28 28 28 28 27 25 25 24 23 22 21 21 18 17 16 15 15 14 16 17 16 16 14 13 12 12 11 12 12 11 11 12 12 9 8 9 11 12 12 13
29 29 28 28 27 27 26 25 25 24 23 22 21 21 20 19 18 16 17 17 16 16 17 19 16 15 14 13 13 12 11 11 11 11 10 10 9 9 11 10 12 12 14
28 28 27 27 27 27 26 25 24 22 21 21 20 19 20 19 18 16 16 17 17 17 19 20 19 18 18 18 17 16 14 13 12 10 10 10 10 9 11 11 12 13 14
28 28 27 27 27 27 26 25 24 22 20 19 18 18 18 17 16 15 16 15 15 16 21 22 21 20 20 19 19 18 17 16 15 14 11 10 10 10 12 13 13 14 14
27 28 28 28 27 27 26 25 24 23 22 21 19 18 18 17 16 16 16 15 17 19 23 23 22 21 21 20 20 20 20 18 17 17 16 15 10 12 13 13 14 14 11
28 28 28 28 27 28 27 27 26 26 26 24 21 19 19 17 17 17 16 18 21 21 22 23 23 21 22 21 21 20 20 19 18 19 18 17 17 16 13 13 13 12 10
30 30 29 29 28 28 27 27 26 26 26 25 24 22 23 19 19 18 17 21 22 23 23 23 22 21 22 21 21 20 20 20 20 20 20 19 20 20 15 12 11 11 10
29 30 29 29 29 28 27 26 26 26 26 26 26 25 25 23 23 22 21 21 23 23 23 23 22 21 21 21 21 20 21 20 20 21 21 21 23 23 14 11 11 11 10
29 30 29 28 28 28 28 27 27 27 27 27 26 27 19 25 25 23 22 22 23 23 23 23 22 22 21 21 20 21 21 20 21 22 23 22 23 23 17 10 12 12 11
29 29 28 28 28 28 29 28 28 27 27 27 26 25 22 25 25 24 23 22 23 23 22 23 23 22 21 22 20 21 21 21 22 23 24 23 23 23 21 12 12 12 12
28 29 28 28 28 30 29 29 28 27 26 27 27 26 26 25 25 24 24 23 23 23 22 22 22 22 21 21 19 20 21 21 22 23 24 24 25 23 22 15 12 12 11
28 28 28 28 28 28 28 28 28 30 28 27 27 26 26 26 25 25 24 24 24 24 22 22 22 22 22 21 19 19 20 19 22 23 24 25 24 24 23 16 12 12 11
27 27 27 28 29 28 29 28 27 28 27 26 27 26 26 26 25 25 24 25 25 24 24 22 21 21 21 20 19 19 19 18 21 23 23 24 25 25 24 19 12 11 12
27 27 28 29 29 29 28 27 28 27 28 27 27 27 27 26 26 25 25 26 26 25 24 23 21 21 20 20 18 18 19 18 20 22 23 24 25 26 25 25 23 17 12

GFSGL_con_lsi_009.txt.gz
Lid_Strength_Index
15 15 16 17 17 17 18 18 18 18 18 19 19 19 19 19 19 19 19 19 19 19 18 17 17 16 16 16 15 15 15 14 16 15 13 11 11 10 8 7 7 7 7
15 16 17 17 18 19 19 19 19 19 19 19 19 20 20 20 20 20 21 20 20 20 19 19 19 18 18 17 17 17 16 15 16 16 14 13 13 11 10 10 7 7 7
15 17 18 18 19 19 19 19 19 20 20 20 20 21 21 21 21 21 21 21 21 20 20 19 19 18 18 18 17 17 17 16 15 15 16 14 13 11 10 8 7 7 6
16 18 19 19 20 19 20 20 20 20 21 21 21 21 22 22 21 21 21 21 20 19 18 18 18 18 17 17 17 17 17 17 16 16 16 15 14 12 11 10 9 8 7
18 19 19 19 19 20 20 21 21 21 21 21 22 22 22 21 21 21 21 20 19 19 18 17 17 17 16 15 16 16 16 16 16 17 16 15 14 13 12 9 8 8 5
19 20 19 20 21 21 21 21 22 22 22 22 22 22 22 21 20 19 19 19 19 19 19 18 17 16 16 14 14 13 12 15 16 16 16 16 15 14 12 12 10 11 10
19 20 20 21 22 22 22 23 24 24 23 23 22 22 22 21 19 18 18 19 19 18 18 18 17 16 15 16 15 13 12 12 12 13 14 14 14 12 12 13 12 11 10
19 20 21 21 22 23 24 24 24 24 23 23 22 22 22 21 19 18 18 18 18 18 17 17 16 16 16 16 15 15 15 14 13 13 13 13 12 11 12 12 11 10 9
20 21 22 22 23 24 25 25 24 23 23 23 23 22 23 23 20 18 17 18 18 17 16 15 15 15 14 14 14 15 16 15 13 12 11 10 9 9 10 12 13 11 12
21 22 22 23 24 25 25 24 24 24 24 23 23 23 23 23 19 18 17 17 18 17 16 15 15 16 15 12 15 16 18 16 14 14 13 11 10 10 9 11 11 13 11
21 22 23 24 25 24 24 24 25 25 24 25 24 22 21 20 20 18 16 16 17 17 17 17 17 16 14 13 13 15 15 13 13 13 13 12 10 11 11 11 10 10 11
22 24 25 25 25 26 27 26 26 26 25 24 23 21 20 19 18 17 16 15 14 17 18 18 17 15 14 13 13 11 11 12 11 12 12 12 11 11 11 11 10 9 8
24 25 26 26 25 26 27 26 26 25 24 23 22 22 21 20 19 17 16 15 15 17 17 16 16 15 14 15 14 13 14 13 13 14 13 13 11 10 10 10 10 9 9
25 25 26 27 26 27 25 25 24 24 23 22 22 22 21 20 19 18 17 16 16 17 17 20 18 16 16 16 16 16 16 16 15 15 14 12 11 10 11 10 10 10 10
25 26 26 25 26 26 25 24 23 23 22 22 22 21 21 21 19 16 16 16 17 17 19 21 20 20 20 19 18 17 17 17 17 16 15 15 13 11 10 10 10 10 11
25 25 26 26 25 25 26 26 23 22 21 21 20 20 19 18 16 15 15 15 16 16 22 22 21 21 21 20 20 19 18 18 18 17 16 16 15 13 11 10 9 10 11
24 25 26 25 25 26 26 25 26 25 22 22 21 20 18 17 16 15 15 16 18 19 23 22 21 21 22 20 20 19 19 18 18 18 17 17 17 16 15 12 11 10 12
24 25 25 25 25 25 26 25 25 24 24 24 22 21 19 17 16 16 16 20 23 22 22 21 22 22 22 21 21 20 19 18 19 18 18 19 19 19 18 16 14 10 12
25 26 25 26 26 27 27 26 26 26 25 25 24 22 22 18 18 18 19 23 24 24 22 21 21 21 22 21 21 21 19 19 19 19 20 20 20 20 20 18 16 15 12
26 26 27 28 28 27 27 27 26 26 26 25 25 25 25 23 24 24 23 23 24 23 22 22 22 21 21 21 21 21 20 20 19 19 21 21 21 21 21 20 19 19 14
27 28 28 28 28 28 27 25 25 26 26 26 26 26 19 26 25 25 24 24 24 23 22 22 22 21 21 21 21 21 20 20 18 20 22 22 21 22 21 20 20 21 14
28 28 28 28 28 27 27 26 26 26 26 26 26 26 23 26 26 26 25 25 23 23 22 22 22 22 21 21 21 20 20 20 19 20 21 22 21 21 21 21 21 20 11
28 27 28 28 27 28 27 27 26 26 26 27 27 26 26 27 28 27 25 24 23 23 22 22 22 22 21 21 20 19 20 20 19 20 22 22 22 22 23 23 22 20 12
27 27 27 28 28 27 27 26 27 28 26 27 27 27 27 28 28 27 26 24 24 24 23 23 23 22 22 21 19 19 18 18 19 20 21 22 23 23 24 24 23 16 12
25 27 27 27 27 26 27 26 26 27 27 26 27 26 27 27 27 26 26 25 25 25 25 24 22 23 22 21 19 18 17 17 19 20 21 22 23 24 24 24 25 21 11
26 26 26 26 26 27 26 26 27 26 27 27 27 27 27 27 27 26 26 26 26 26 25 24 23 22 22 20 19 17 15 16 18 20 21 22 23 24 25 26 26 24 22

GFSGL_con_lsi_012.txt.gz
Lid_Strength_Index
16 16 16 17 18 19 19 19 20 20 20 21 20 21 21 21 20 21 20 20 20 20 20 20 20 19 19 19 18 18 18 17 18 17 16 15 15 14 13 13 12 12 13
16 17 17 18 18 19 20 20 20 21 20 21 21 21 21 21 21 21 21 21 21 21 21 21 21 20 20 19 19 19 19 18 18 20 18 17 16 15 15 14 13 11 11
16 17 18 18 19 19 20 20 21 21 21 21 21 22 22 22 22 22 22 22 22 22 22 21 21 20 20 19 19 19 18 18 18 19 19 17 16 16 15 14 14 13 12
16 17 18 19 19 20 20 21 21 21 22 22 22 22 22 22 22 22 22 22 22 22 21 20 20 19 19 19 19 19 18 18 18 18 18 18 17 15 14 15 15 13 13
16 17 18 19 20 20 21 21 21 22 22 22 22 22 22 22 22 22 22 22 21 21 20 19 19 19 17 17 17 17 17 17 17 17 18 18 17 16 16 15 15 14 13
17 18 19 20 20 20 21 21 21 22 22 22 22 22 23 22 20 19 19 20 20 20 20 19 19 18 18 16 15 14 14 16 17 17 17 17 16 16 15 15 15 15 16
17 18 19 20 21 21 21 21 22 22 22 22 22 22 22 22 20 19 19 19 20 20 20 19 19 18 18 17 16 15 14 13 13 15 17 16 16 15 14 14 14 14 14
18 19 20 20 21 21 22 22 22 22 22 22 22 22 23 22 20 19 19 19 19 19 19 18 18 18 16 16 16 17 16 15 15 14 14 15 15 14 14 14 14 13 13
19 19 20 21 21 21 22 22 22 22 22 22 22 23 23 23 21 20 18 20 20 19 18 17 17 17 16 15 16 17 17 16 14 12 12 12 12 10 11 13 14 15 15
19 19 19 20 21 22 21 22 22 21 22 22 23 22 23 23 21 19 18 19 20 19 18 17 16 17 15 14 16 16 18 17 15 15 14 13 12 12 11 11 12 14 14
19 19 20 20 21 21 22 22 22 22 22 23 23 23 22 21 21 19 17 18 19 19 19 19 18 16 14 14 13 16 16 15 14 14 13 14 13 13 11 12 12 12 14
20 21 21 22 22 22 23 23 24 23 24 24 24 23 21 19 19 19 17 16 16 19 19 18 17 15 15 15 16 15 14 13 17 17 16 15 14 13 11 11 10 11 11
22 22 23 23 23 24 24 25 25 24 24 23 23 22 22 20 20 19 18 17 17 17 18 16 16 17 16 17 17 16 16 17 18 19 19 17 14 12 11 11 11 10 10
23 23 24 24 25 25 24 24 23 24 23 22 22 22 22 21 21 20 19 20 17 18 17 21 19 18 18 18 19 18 17 18 18 18 18 17 15 15 14 12 11 10 11
24 24 25 24 25 24 23 24 22 21 21 22 22 22 23 24 21 17 17 17 18 17 21 24 23 22 22 22 21 19 18 18 18 18 18 18 17 16 15 13 12 11 12
24 25 25 25 25 24 24 24 20 20 18 18 19 21 22 19 18 16 16 15 16 16 27 26 24 23 23 23 22 20 19 19 18 18 18 18 18 17 17 16 15 15 12
23 24 24 25 24 24 24 25 24 21 18 19 19 19 19 19 17 17 16 16 17 19 31 26 25 24 24 22 20 20 20 20 19 18 18 18 17 18 19 19 18 16 15
23 23 24 24 24 24 23 25 25 25 25 25 21 21 20 19 18 17 16 21 28 25 30 26 26 25 24 21 20 20 20 20 19 18 18 18 19 19 20 20 20 19 18
23 23 23 23 23 22 22 23 24 25 26 27 26 22 24 20 18 19 19 31 33 32 28 27 26 25 23 21 20 20 20 21 19 19 18 19 19 20 21 21 21 20 20
22 22 23 23 24 24 24 25 26 27 27 27 27 28 31 29 32 34 34 35 35 33 29 27 26 25 23 21 21 20 20 20 19 18 19 19 20 20 21 21 21 22 21
22 23 23 24 24 24 25 26 27 26 27 28 29 30 23 31 34 35 37 36 35 33 28 27 26 25 22 21 21 21 21 20 18 18 19 20 20 21 21 21 21 21 21
24 25 25 25 25 26 26 27 26 27 27 28 31 30 21 32 34 36 37 37 35 34 30 29 27 24 22 22 22 21 21 21 18 18 19 20 20 21 21 21 22 22 21
24 25 26 26 26 26 27 26 27 28 28 29 29 30 31 34 35 37 37 36 35 31 29 29 27 25 22 21 21 21 20 20 17 18 20 21 21 21 22 22 22 22 21
25 26 27 28 27 27 27 27 27 27 28 29 30 32 32 35 36 36 37 36 35 32 29 28 27 26 23 22 22 20 19 18 16 18 20 21 21 22 22 23 23 23 23
26 27 27 27 27 27 27 28 28 28 28 28 31 31 33 32 34 36 37 35 33 31 30 28 26 25 24 24 22 20 19 16 15 18 19 20 21 22 22 23 24 24 23
26 26 26 26 26 27 26 27 28 28 28 29 30 31 32 33 34 35 35 34 31 30 29 27 26 27 25 22 20 18 17 13 14 17 19 20 22 23 23 24 25 25 25

GFSGL_con_lsi_015.txt.gz
Lid_Strength_Index
15 15 15 16 16 17 17 18 18 19 19 19 20 20 20 20 20 21 21 21 21 21 20 20 20 19 20 20 20 20 20 19 22 20 18 17 18 18 17 17 16 16 15
15 16 16 17 18 18 18 19 19 19 20 20 20 20 20 20 21 21 22 21 21 21 21 21 21 21 21 21 21 21 21 20 21 22 20 20 19 18 18 17 16 16 16
15 16 17 18 18 18 18 19 19 20 20 20 20 20 21 21 21 21 21 21 21 21 21 22 22 22 22 21 21 21 20 19 20 21 21 19 19 18 18 17 17 16 15
15 16 17 17 17 18 19 19 20 20 20 21 21 21 21 21 21 21 21 21 21 21 21 21 21 21 21 21 20 20 20 20 20 20 20 20 18 17 16 18 18 16 16
15 16 16 17 17 19 19 19 20 20 20 21 21 21 21 21 21 21 21 21 21 21 20 20 20 19 18 18 19 19 19 19 19 19 19 18 18 17 18 17 17 16 15
15 16 16 18 18 19 19 20 20 21 21 21 21 21 22 21 19 18 19 21 20 20 20 20 19 19 19 17 16 16 16 18 19 19 19 18 18 17 16 17 17 17 17
15 16 18 18 19 19 20 20 21 21 21 21 21 21 21 20 17 17 17 18 19 20 20 19 19 18 18 18 17 16 16 15 15 16 18 17 17 16 16 17 16 16 17
16 17 18 19 19 19 20 20 21 21 21 21 21 21 20 20 17 17 17 18 19 19 19 19 19 18 18 18 18 18 17 17 16 16 16 16 15 15 15 15 14 15 15
16 17 18 19 19 20 21 20 20 21 21 20 20 21 21 20 17 16 17 18 18 19 18 18 18 18 18 16 17 18 18 17 15 14 13 12 12 12 11 12 14 15 16
17 17 18 18 20 20 20 20 20 21 20 20 20 21 21 22 18 17 16 19 21 19 18 17 17 18 17 16 17 18 19 19 18 17 15 16 15 15 12 12 14 16 16
18 19 19 20 20 20 21 20 21 21 20 20 21 21 22 22 21 17 15 17 19 20 19 19 18 17 16 15 15 17 19 16 17 19 20 18 17 15 14 13 13 14 15
20 20 20 20 20 21 22 22 21 21 22 22 23 22 21 20 19 17 17 16 16 22 20 18 19 16 16 16 17 16 15 16 21 21 21 20 18 17 15 14 13 12 12
20 21 21 21 21 22 23 23 23 23 23 23 23 23 21 19 20 17 17 16 17 18 18 18 18 18 18 18 18 17 18 20 21 22 21 19 17 16 15 16 15 14 13
21 21 22 22 23 23 22 23 23 24 23 23 23 22 21 21 21 20 20 19 17 18 19 22 20 20 19 19 20 19 20 20 20 21 20 17 16 17 17 16 16 15 16
20 22 23 22 23 23 22 22 23 22 21 22 21 22 22 22 21 19 18 20 21 19 26 26 25 23 22 22 21 21 20 20 21 19 18 19 18 18 18 17 16 17 18
21 22 22 23 23 23 24 23 19 20 18 17 18 20 20 18 16 16 17 17 19 19 29 31 26 24 23 23 23 22 21 21 20 19 18 18 18 18 18 17 17 18 19
20 22 22 23 23 23 23 22 23 19 17 17 17 17 17 17 16 16 17 20 19 23 32 32 27 25 25 23 23 23 23 21 19 18 19 18 18 18 19 19 19 19 20
19 21 23 23 23 22 23 22 21 21 21 20 17 17 17 16 16 16 19 23 29 28 34 34 31 27 26 25 24 24 23 22 20 19 19 18 17 18 20 20 20 20 20
19 21 23 23 22 22 22 21 21 20 21 22 21 19 19 16 16 17 22 28 30 33 35 35 32 29 27 26 25 24 23 21 20 20 19 18 18 19 20 20 20 20 20
18 19 20 22 23 22 22 23 23 23 23 23 23 25 26 25 27 29 30 32 33 34 34 34 31 31 29 27 26 24 22 21 21 19 19 17 18 19 20 20 20 21 21
19 20 20 21 21 21 21 22 22 23 24 24 24 25 23 26 28 30 30 34 34 36 36 36 33 33 30 28 26 24 22 21 20 19 19 18 19 20 20 20 21 21 21
19 19 20 21 21 21 22 22 23 24 24 25 26 24 19 27 29 31 35 34 34 35 37 35 34 35 30 28 26 24 22 21 20 19 18 18 19 20 20 21 22 21 22
21 21 22 23 22 23 24 24 24 25 26 26 25 26 27 29 31 33 33 34 35 38 39 36 35 34 31 28 26 24 22 21 19 19 17 19 20 20 21 22 22 22 23
22 23 24 24 24 24 25 26 26 25 26 26 26 27 28 30 31 32 34 36 40 38 37 35 35 35 31 28 26 23 21 19 18 15 17 19 20 21 21 22 22 23 23
24 24 25 25 25 26 26 25 26 26 26 26 27 28 30 30 31 34 34 37 38 37 35 34 35 34 31 30 28 25 22 19 16 14 16 18 20 21 22 22 23 23 23
25 25 25 26 26 26 26 26 26 26 26 27 28 28 29 29 31 32 34 36 35 35 33 33 34 32 31 28 26 21 19 15 12 14 16 18 20 21 22 23 23 23 24

GFSGL_con_lsi_021.txt.gz
Lid_Strength_Index
14 14 15 15 15 15 16 16 16 17 17 17 17 18 18 19 19 20 20 20 20 21 20 20 20 20 20 20 20 20 20 21 23 21 19 19 19 19 19 18 18 18 18
14 15 15 15 16 15 16 16 16 17 17 18 18 18 18 19 19 20 20 20 21 21 21 21 21 20 21 21 21 21 21 20 21 22 20 20 20 19 19 19 18 17 17
15 15 15 15 16 16 15 16 17 17 18 18 18 19 19 19 19 19 20 20 21 21 21 21 21 21 22 22 22 22 21 20 20 21 21 19 19 19 18 18 17 17 16
15 15 15 16 16 15 15 16 17 16 17 18 18 18 19 19 19 20 20 21 21 21 21 21 21 21 21 21 21 21 20 20 20 20 20 19 19 17 17 18 18 17 17
14 15 15 15 16 16 16 16 16 16 17 17 18 19 19 19 20 20 20 20 21 21 21 21 21 21 19 19 20 20 20 20 20 20 20 19 18 18 18 17 18 17 17
15 15 14 15 16 16 16 16 17 17 17 18 19 19 20 19 17 16 19 20 21 21 21 21 20 20 19 16 16 15 16 20 21 20 19 19 19 18 17 18 19 19 20
15 15 16 16 16 16 16 17 17 18 18 19 19 19 20 19 15 15 17 20 20 21 20 20 19 19 18 18 16 15 15 15 14 16 18 17 17 17 17 18 18 18 18
16 15 18 17 16 17 18 18 18 18 19 19 19 19 19 19 15 15 16 20 20 20 19 18 18 18 18 17 18 18 18 17 17 17 17 16 16 15 15 15 16 18 18
16 16 17 18 17 19 18 19 18 18 18 18 18 18 19 19 14 15 16 20 20 19 18 18 18 18 17 15 17 19 18 17 15 14 13 13 13 13 13 17 20 21 22
14 15 17 18 19 18 17 18 18 18 18 17 18 18 19 19 15 14 16 19 20 20 19 18 17 17 16 15 17 20 20 18 18 19 17 16 15 17 15 17 19 22 22
16 18 18 18 17 18 19 19 18 18 18 19 19 19 19 19 16 14 14 18 19 19 19 19 18 15 15 15 15 17 18 17 18 18 20 20 19 19 18 18 18 19 21
17 18 17 17 20 19 19 19 19 19 20 20 21 21 20 20 17 14 14 17 17 19 19 19 18 16 16 16 15 16 16 16 23 24 23 22 21 20 18 18 17 17 17
14 17 17 17 17 18 18 18 19 19 20 20 21 21 22 21 19 15 14 15 16 19 19 18 17 16 16 17 17 17 18 21 23 25 24 22 20 19 18 18 17 17 17
14 15 16 17 17 18 17 18 19 19 19 20 20 21 21 21 20 17 16 16 16 18 17 18 18 19 19 19 20 21 21 21 22 22 22 20 19 19 20 18 19 19 19
18 15 15 18 18 18 18 19 18 18 18 19 19 20 21 22 20 17 17 17 17 18 23 23 23 23 23 23 22 22 22 22 22 22 21 21 21 20 20 19 19 19 20
21 19 16 16 17 18 19 19 16 16 16 15 15 17 19 18 17 15 15 15 16 17 24 25 24 23 24 24 24 24 23 23 22 21 21 22 21 21 20 20 19 20 21
22 20 18 17 17 18 20 20 21 17 15 14 15 15 16 16 15 15 15 15 15 18 25 24 24 24 24 24 24 24 24 23 22 22 22 21 21 21 21 21 20 21 20
22 21 19 18 17 18 19 19 19 20 19 19 15 15 14 14 13 13 14 15 18 23 26 26 26 26 26 25 25 25 24 24 24 23 22 23 23 23 22 22 21 21 21
22 21 19 17 16 18 18 19 20 20 20 19 18 15 15 14 13 12 13 17 24 27 27 27 26 27 27 27 27 27 28 27 26 26 25 24 23 23 22 21 21 20 20
20 19 19 18 17 18 18 19 20 20 19 18 18 17 17 15 15 15 21 22 24 25 27 27 28 28 29 29 30 31 31 28 28 27 26 24 23 22 21 21 20 21 21
19 18 17 15 17 16 17 18 18 18 17 17 16 15 13 14 18 22 24 23 25 26 27 27 28 30 31 31 33 34 31 28 28 28 26 24 23 23 21 19 20 20 20
17 16 16 15 17 17 17 16 16 16 16 17 17 14 12 20 22 23 24 25 27 27 27 28 29 30 30 31 32 33 32 30 30 29 25 24 23 22 21 19 20 20 20
16 16 17 18 18 17 17 17 17 16 18 18 16 20 21 22 24 25 26 27 29 29 31 32 30 31 34 33 33 32 32 30 30 29 26 25 24 22 20 20 21 21 21
19 19 19 19 19 19 19 19 20 20 19 18 21 22 23 24 25 26 27 28 29 30 31 31 32 33 32 32 33 33 32 30 30 28 26 24 22 20 20 21 21 21 21
21 21 21 21 21 22 21 21 21 21 22 24 24 25 26 26 27 27 28 28 29 30 30 30 30 32 32 32 31 32 31 27 28 26 23 20 19 20 21 21 21 21 21
23 23 23 23 23 23 23 23 23 23 24 25 26 26 26 26 27 28 28 27 27 27 28 29 31 31 30 30 31 29 26 22 21 18 16 17 21 20 21 22 21 21 21

GFSGL_con_lsi_024.txt.gz
Lid_Strength_Index
15 15 15 15 15 16 16 15 15 15 16 16 16 16 17 17 18 18 19 19 19 20 20 20 20 20 20 20 20 20 21 21 24 22 20 20 20 20 19 18 18 18 17
14 15 16 16 16 16 15 15 15 15 16 16 16 17 17 17 18 18 19 19 20 20 20 20 20 20 21 21 21 21 21 21 22 23 22 22 21 20 20 19 18 17 16
15 15 16 16 16 14 14 14 15 15 16 16 16 17 17 17 18 18 18 19 19 20 19 20 20 20 21 21 22 22 21 21 22 23 23 21 21 20 19 18 18 17 16
13 15 15 16 15 14 14 15 16 16 16 16 16 17 17 17 17 18 18 19 19 19 20 20 20 20 21 21 22 21 21 22 22 23 22 22 21 19 18 19 18 17 17
14 14 14 14 14 14 15 16 16 16 16 16 16 17 16 17 17 18 18 19 19 20 20 20 20 20 19 20 21 21 21 22 22 22 22 21 20 19 19 18 19 19 18
15 15 14 14 14 15 16 15 16 17 16 16 17 17 17 17 15 15 17 18 19 20 21 21 21 21 19 17 17 18 19 22 24 24 22 20 19 19 18 19 19 19 20
14 14 14 14 15 15 16 16 16 17 17 17 17 17 18 17 15 14 15 18 19 20 20 21 21 20 20 19 16 16 16 16 18 20 22 19 19 18 18 19 18 18 18
13 13 14 15 15 15 16 16 16 17 17 17 18 17 18 18 14 13 14 18 18 19 19 20 20 20 20 19 19 18 18 18 17 17 18 17 18 17 17 17 17 19 19
13 13 14 15 15 16 16 17 17 17 17 17 17 17 18 18 15 13 14 18 18 19 19 19 19 19 18 17 19 20 20 19 16 15 15 14 14 14 15 20 24 25 24
14 13 13 15 15 16 15 16 16 17 17 17 17 17 18 18 15 12 13 18 19 19 19 18 17 19 17 16 19 20 20 19 18 19 18 17 17 18 17 18 21 27 24
14 16 15 14 14 15 17 19 19 17 17 18 18 18 18 18 16 12 12 17 19 19 19 19 18 17 16 16 16 19 19 18 18 20 21 21 20 20 20 19 19 20 22
16 16 16 14 14 15 17 18 18 18 19 21 20 20 19 18 16 12 12 15 16 19 19 19 18 16 16 15 15 16 16 16 22 23 23 22 22 21 20 19 19 18 18
17 17 17 17 17 15 16 17 18 18 19 20 20 21 21 19 17 13 12 14 15 18 18 17 17 15 15 15 15 16 18 21 23 25 24 23 21 20 20 20 19 19 19
20 19 19 19 17 15 16 16 17 18 18 18 19 20 20 19 18 16 14 14 15 17 16 17 17 16 16 19 18 18 20 21 22 23 22 21 21 21 21 20 21 21 21
22 21 21 20 20 18 16 16 17 16 16 17 17 18 19 20 19 16 14 15 16 18 18 18 18 20 21 22 22 22 22 22 23 22 23 23 22 22 22 20 21 21 23
23 23 22 21 20 20 18 16 14 14 14 14 13 16 17 16 16 15 13 13 14 15 19 20 21 21 22 23 23 23 23 23 23 23 23 23 23 23 22 21 21 22 23
24 24 23 22 21 21 20 18 18 16 13 13 13 13 13 15 15 14 13 13 14 15 21 22 22 22 22 22 23 23 24 24 23 23 24 24 23 23 23 23 22 21 21
24 23 23 23 22 21 20 19 17 17 18 16 13 12 12 14 14 14 13 13 15 18 21 22 22 22 23 23 24 24 25 25 25 24 24 25 25 25 24 23 22 22 21
23 22 21 21 20 20 19 17 16 16 17 16 16 13 13 13 14 14 13 15 17 23 22 22 23 23 24 24 24 25 26 27 27 27 27 26 26 25 25 23 22 21 21
22 21 21 21 20 19 19 17 16 17 16 16 16 15 14 15 17 16 15 16 22 23 23 25 25 24 25 26 27 27 28 28 28 28 27 27 26 24 24 23 22 22 21
22 22 21 20 19 18 17 16 16 16 16 16 15 14 13 15 16 15 17 21 23 24 25 25 26 27 26 27 28 28 28 27 28 28 28 27 25 25 23 22 22 21 20
20 19 19 18 17 17 15 16 16 16 16 15 14 13 10 14 19 20 21 23 24 24 24 25 26 27 26 27 28 28 28 28 31 31 28 26 25 24 24 23 22 20 20
19 18 16 16 16 16 16 16 17 16 16 15 15 17 20 21 22 23 24 25 25 26 26 25 27 28 28 29 30 29 28 29 29 30 29 27 26 25 24 23 21 21 22
20 20 19 18 18 18 19 20 19 18 18 21 21 22 22 22 23 24 25 25 27 28 28 28 27 28 29 32 32 32 31 30 30 31 30 27 26 25 23 21 21 22 23
22 22 22 21 21 21 21 21 20 22 22 22 23 23 24 24 24 25 26 27 28 28 29 29 29 29 30 30 30 30 29 24 26 27 27 26 26 25 21 21 22 23 24
24 23 23 23 23 23 23 23 23 23 24 24 24 24 24 25 26 26 27 27 27 28 28 29 29 29 29 29 28 26 26 22 24 24 24 22 19 19 21 22 24 24 24

GFSGL_con_lsi_030.txt.gz
Lid_Strength_Index
11 11 11 11 11 11 11 11 11 11 11 11 11 11 11 11 12 12 12 12 13 13 13 12 12 12 13 13 13 14 14 14 13 17 16 15 15 16 16 16 16 16 15
12 12 11 11 11 12 12 11 11 12 12 11 11 11 12 12 12 13 13 13 13 14 13 13 13 14 14 14 14 15 16 15 15 17 18 18 16 16 16 17 17 17 16
12 12 12 11 11 12 13 12 12 12 12 12 13 12 12 13 13 13 13 13 13 13 13 13 13 15 15 15 15 15 15 17 15 15 18 18 18 18 18 17 17 16 17
12 12 12 12 12 12 12 13 13 13 13 12 12 13 13 13 13 13 14 13 12 13 13 13 14 15 15 15 15 16 15 16 16 16 17 19 18 18 17 17 18 16 16
13 14 13 12 12 12 13 13 13 13 13 13 13 13 13 13 13 13 14 13 13 14 13 14 15 14 14 14 15 15 15 15 16 17 17 19 19 19 19 17 18 17 16
12 13 13 12 11 13 14 14 13 13 12 11 12 13 14 14 13 12 12 14 14 14 14 14 15 15 15 13 13 13 14 15 17 17 17 19 19 18 17 18 18 18 18
12 13 13 12 12 13 15 15 15 14 13 13 12 12 12 12 12 12 12 14 14 14 14 15 15 15 15 15 14 14 14 14 14 15 17 17 18 17 17 18 18 18 18
12 13 13 13 13 13 14 15 15 14 13 13 13 12 12 12 12 12 12 13 14 14 14 15 15 15 15 16 15 15 15 15 15 16 16 16 16 16 16 16 17 17 16
12 12 12 12 13 14 16 15 14 13 13 13 12 13 12 12 11 12 13 14 14 14 14 14 14 15 15 14 16 16 16 17 15 15 15 15 15 15 16 16 18 18 19
11 11 12 12 14 15 15 15 14 13 14 13 12 11 12 12 11 12 12 13 14 13 13 14 15 15 14 14 15 16 18 18 17 17 17 15 14 15 15 15 16 18 19
11 12 12 12 14 14 14 14 15 15 14 14 13 11 12 12 12 12 12 13 13 13 13 15 15 13 14 15 14 16 16 16 16 16 16 16 16 16 15 15 16 17 19
13 14 14 15 15 15 17 17 16 16 16 16 14 12 11 11 12 12 12 11 12 13 12 13 15 14 14 14 14 14 14 15 16 16 16 17 18 18 18 18 18 18 18
16 17 17 17 17 17 18 18 18 17 17 16 15 13 12 11 11 11 12 11 11 12 11 13 14 14 13 14 13 13 15 17 17 18 18 18 18 18 18 19 19 18 19
19 19 19 19 19 19 19 18 19 18 18 17 16 15 13 11 12 12 12 12 12 12 12 14 14 14 14 15 15 15 16 17 17 18 18 18 19 20 20 20 20 20 21
21 21 21 21 21 21 20 20 19 18 17 18 17 16 15 13 11 11 12 13 13 12 13 15 15 16 16 15 15 17 17 17 18 18 19 20 20 21 21 20 21 21 22
23 23 22 22 22 22 21 21 18 17 15 15 14 14 14 13 11 10 11 11 10 10 14 16 16 16 16 16 15 16 17 18 19 19 20 21 21 21 21 21 21 22 22
24 24 23 23 23 23 23 22 23 20 17 16 15 14 13 12 11 9 9 9 10 10 15 15 15 16 15 16 16 18 19 19 19 20 20 21 21 21 21 22 22 22 22
25 24 23 23 23 23 23 22 22 22 22 20 17 15 13 11 9 8 8 9 12 11 14 15 15 15 15 16 19 19 20 21 20 21 21 22 22 22 22 22 22 22 22
24 23 22 22 22 21 21 21 21 21 21 20 18 17 15 12 9 9 7 10 12 12 13 14 14 15 16 17 18 20 20 21 21 21 21 22 22 22 22 22 22 22 22
23 22 21 20 20 20 20 20 20 20 20 19 18 17 16 11 11 10 8 9 10 11 13 15 17 18 17 18 19 20 21 21 22 22 23 23 22 22 23 23 22 22 22
22 21 20 19 19 19 19 19 19 19 19 18 17 15 11 11 11 10 9 9 10 13 15 16 18 18 19 20 21 22 22 22 23 23 23 23 24 24 22 22 21 22 22
21 21 21 21 19 18 17 16 17 19 18 17 15 12 11 12 12 14 14 15 15 15 15 16 18 19 20 21 21 22 23 23 23 23 23 23 23 22 22 22 22 21 21
22 22 21 20 20 19 18 17 17 16 16 16 16 16 17 17 17 18 18 17 17 18 18 18 19 20 20 20 20 20 22 22 22 22 22 22 23 22 22 21 21 21 21
22 23 22 22 21 21 20 20 20 20 20 20 20 20 20 20 20 20 20 19 19 19 18 19 19 20 20 20 19 19 20 20 21 21 20 21 21 21 21 21 21 21 20
22 23 23 23 23 23 22 22 21 21 21 21 22 22 22 21 22 21 21 21 21 21 21 21 21 21 22 22 22 22 21 22 23 23 23 22 22 22 22 21 20 19 18
23 23 23 22 23 23 23 23 23 22 22 22 22 22 22 22 22 22 22 22 22 22 22 22 22 22 22 22 23 23 23 22 24 24 24 23 23 21 21 21 20 19 18

GFSGL_con_lsi_033.txt.gz
Lid_Strength_Index
12 12 12 12 11 12 12 12 12 11 10 10 10 10 10 10 10 11 11 11 12 12 12 12 12 12 13 12 12 12 12 12 11 16 13 14 14 15 15 16 16 17 16
12 12 12 12 12 12 12 12 12 12 12 11 11 11 11 11 11 11 12 12 12 12 12 13 13 13 13 13 13 13 13 12 12 16 16 16 15 15 16 17 18 17 17
13 12 12 12 11 12 12 12 13 12 12 11 11 11 11 12 12 11 11 12 12 12 12 13 13 13 14 13 13 13 13 15 13 14 17 17 16 15 16 17 17 17 17
12 11 12 12 12 12 12 13 13 12 12 12 12 12 11 11 12 12 12 13 13 13 12 13 13 14 14 14 14 13 14 14 14 14 17 18 18 17 17 18 18 17 17
12 12 12 12 12 13 13 13 14 14 13 12 12 12 12 12 12 12 13 13 13 14 13 13 13 13 13 12 13 14 14 14 15 15 16 18 19 19 19 17 17 17 17
12 12 12 13 13 13 13 14 14 14 14 12 11 12 13 13 11 11 11 13 13 14 14 14 14 14 14 12 11 11 12 14 15 16 16 17 18 18 18 18 17 17 19
11 11 12 13 14 14 14 14 15 15 14 13 13 12 12 12 11 11 11 12 13 13 13 14 14 14 14 14 12 12 11 11 11 14 15 16 17 17 17 17 17 17 17
11 11 11 12 12 13 14 14 15 15 15 15 14 12 13 13 11 12 11 11 12 12 12 13 13 13 14 15 15 14 14 14 13 13 14 14 15 16 16 16 17 16 16
11 12 12 11 12 13 14 14 14 15 15 15 14 15 15 14 11 11 12 12 12 12 11 12 13 13 12 12 15 15 15 15 13 12 12 12 13 14 14 16 18 18 19
11 11 11 11 12 13 13 13 13 14 14 14 15 14 14 15 12 11 11 12 12 13 12 12 12 13 12 11 14 15 16 15 16 15 15 14 14 14 14 15 17 19 18
12 12 13 13 14 14 14 14 15 15 15 16 16 16 15 14 14 11 10 11 12 12 12 12 12 11 11 12 12 14 15 14 14 15 16 16 16 16 16 16 16 16 18
15 16 16 17 17 17 17 17 17 18 18 19 18 18 16 15 13 11 9 9 9 10 12 11 11 10 10 11 12 13 13 13 16 16 17 18 17 17 17 16 16 16 16
19 20 20 20 19 19 20 20 20 19 20 20 19 19 18 16 14 12 10 9 8 9 9 9 9 9 10 11 11 12 14 14 16 17 18 17 17 16 16 18 18 18 18
21 21 21 21 21 21 20 20 21 21 21 20 20 20 19 17 16 14 12 10 10 10 9 9 9 8 11 12 13 12 13 14 15 16 16 16 16 18 19 19 21 20 21
22 22 22 22 22 22 21 22 21 20 20 21 21 20 20 19 17 14 13 14 11 10 11 10 10 11 13 13 13 13 13 14 15 15 16 18 18 19 20 20 21 22 22
23 23 23 24 23 23 23 23 19 18 17 16 16 16 17 15 13 12 12 11 11 10 10 11 12 12 13 14 14 14 14 15 15 16 17 19 20 20 21 21 21 22 22
25 25 25 24 24 24 23 23 24 21 17 17 16 16 15 14 13 13 12 11 10 9 10 11 12 12 14 13 13 14 16 16 17 18 19 19 20 21 22 22 21 22 22
24 24 24 23 22 22 22 21 21 22 22 21 18 17 15 14 14 13 12 10 12 11 10 11 12 12 13 13 13 13 15 18 18 19 19 19 20 21 22 22 22 23 23
24 24 23 22 22 21 20 19 20 20 20 20 20 18 17 15 14 12 11 12 11 9 9 10 11 12 12 13 15 15 16 17 18 19 20 20 21 21 22 22 22 22 22
23 23 22 22 21 20 20 19 19 19 19 19 19 19 17 16 16 13 11 10 10 9 9 10 11 11 14 15 16 17 17 18 19 20 21 21 21 21 23 23 23 24 24
23 22 22 21 21 21 20 19 18 17 18 19 18 17 13 13 12 11 10 10 7 9 11 12 12 13 14 16 17 18 19 19 20 21 21 21 21 22 21 21 22 22 22
22 22 22 22 21 21 20 19 19 19 17 17 17 15 13 16 15 14 14 13 12 12 12 13 13 14 15 16 18 19 20 21 21 21 22 22 22 21 21 21 21 22 22
21 22 22 22 21 21 21 20 20 20 20 20 19 19 19 19 19 18 18 17 17 17 16 15 16 17 17 17 18 19 20 20 20 21 22 22 22 22 22 22 22 22 22
22 22 22 22 21 21 21 22 21 21 21 21 21 21 21 20 20 20 19 18 18 18 18 18 17 17 17 17 17 18 18 19 19 19 20 21 21 21 21 21 21 21 21
23 23 23 23 22 22 22 21 22 22 22 22 22 22 21 21 21 21 20 20 20 20 20 20 19 19 19 20 20 19 18 19 20 20 20 20 21 21 21 21 21 21 21
22 23 23 23 23 22 22 22 22 21 22 22 22 21 21 22 21 21 21 21 21 21 21 21 21 21 21 21 21 20 20 20 21 21 21 21 22 22 22 23 23 23 23

GFSGL_con_lsi_036.txt.gz
Lid_Strength_Index
14 14 14 14 14 14 15 16 16 16 15 15 14 13 13 13 13 13 14 14 14 14 14 14 14 14 13 14 14 14 15 15 15 18 18 17 16 15 15 16 16 16 15
14 14 14 15 15 14 15 15 16 17 16 15 15 14 14 13 14 14 13 13 14 14 14 14 14 13 14 14 14 14 13 14 15 19 19 18 17 16 16 16 17 17 17
13 14 14 15 15 14 14 14 15 16 16 15 15 15 14 14 14 14 14 13 13 13 13 14 14 15 14 14 15 14 14 14 14 18 20 19 18 16 18 18 18 18 17
14 14 14 14 14 13 13 14 15 15 16 15 15 14 13 13 13 14 14 14 13 13 13 13 14 14 14 14 14 15 15 15 15 15 20 20 19 17 16 18 19 17 18
14 15 15 15 14 14 14 14 14 15 15 14 14 13 13 13 13 14 14 14 14 13 13 13 13 13 12 13 14 13 15 15 15 15 16 21 20 18 18 17 18 17 17
12 13 12 12 12 13 13 13 13 14 14 14 14 14 14 13 11 11 12 14 13 13 13 12 12 12 12 11 10 10 12 14 14 15 15 17 18 17 16 17 17 18 19
12 12 12 12 13 12 12 13 13 14 14 15 15 15 15 14 11 11 11 13 14 13 12 12 11 12 12 12 11 10 10 10 11 13 15 15 16 17 17 17 17 17 17
12 12 11 11 12 12 12 13 13 13 14 14 15 15 15 15 12 12 11 13 14 14 13 12 11 11 11 12 12 13 13 12 12 12 13 13 14 15 16 15 16 15 17
11 11 11 12 13 12 13 13 13 13 14 14 14 15 16 16 13 13 13 14 14 14 13 13 13 12 10 9 11 13 13 14 11 10 10 10 11 12 14 15 17 18 22
12 12 13 13 15 15 15 15 15 15 15 15 15 15 15 16 14 13 13 15 15 15 13 12 11 12 10 9 10 12 14 13 13 13 13 11 11 12 13 15 16 17 18
14 15 16 16 18 18 19 18 18 19 18 19 18 18 18 17 17 14 14 15 15 15 14 13 12 10 9 8 9 10 12 12 12 13 13 13 14 14 14 14 15 15 17
17 17 19 20 20 20 21 21 21 21 22 22 21 21 19 18 17 16 14 13 13 14 14 12 11 9 8 8 9 8 9 9 13 13 14 14 14 15 15 14 15 15 15
19 21 21 21 21 21 22 22 23 22 23 23 22 22 22 19 18 16 15 14 13 14 13 11 9 8 8 8 7 7 8 9 11 14 14 15 15 14 14 15 15 16 18
22 22 21 22 22 22 22 22 23 24 24 24 24 24 23 22 21 20 19 18 15 15 14 12 11 9 9 9 9 7 8 9 10 12 13 14 15 15 16 16 17 18 19
21 21 22 23 23 24 23 23 22 21 20 21 21 21 21 20 19 16 16 17 16 15 14 14 14 13 12 11 10 9 8 8 10 11 12 14 15 16 17 17 18 19 20
22 22 23 23 24 23 23 23 19 17 16 15 14 15 16 14 14 14 14 13 13 12 14 15 15 14 13 11 11 11 10 9 9 10 12 14 15 17 19 19 19 20 21
23 23 23 23 24 24 24 24 24 21 16 14 14 14 13 13 13 13 13 13 13 13 15 15 14 13 11 11 11 11 11 10 9 12 13 15 16 17 18 20 20 20 20
21 22 24 24 24 24 23 23 22 23 22 20 16 15 14 12 12 12 12 12 15 15 15 15 15 13 11 11 11 10 11 12 11 14 15 15 16 18 18 20 20 21 21
21 22 23 24 23 23 22 22 21 21 21 20 18 16 16 13 12 12 11 14 15 16 15 14 14 11 10 10 10 9 12 12 13 15 15 16 16 18 19 20 20 21 21
22 21 21 22 23 23 23 22 22 21 20 19 19 18 17 16 16 14 13 14 12 12 12 11 9 9 9 9 10 11 12 13 14 15 16 16 17 17 19 20 21 22 22
21 22 22 22 23 22 22 22 22 21 21 21 20 19 14 18 18 18 17 16 16 11 10 10 12 11 10 11 12 12 13 14 16 16 17 17 18 19 19 20 21 22 22
22 23 23 23 23 22 22 21 22 22 22 22 21 21 16 20 20 19 18 17 17 16 14 14 14 13 12 12 13 14 15 16 17 17 18 18 19 19 20 21 21 21 22
23 23 24 23 23 23 22 22 22 22 22 22 22 22 21 21 21 20 19 18 18 17 16 15 15 15 15 15 14 15 16 17 17 17 18 19 19 20 20 21 21 21 22
23 24 24 24 24 23 23 23 22 22 22 22 22 22 22 21 21 21 21 20 19 19 18 17 17 17 17 16 16 16 16 16 16 17 17 18 19 19 20 20 20 21 21
26 25 25 25 25 25 24 24 23 23 22 22 22 22 22 21 21 21 21 20 21 21 20 20 19 19 19 19 18 17 16 17 17 17 18 19 20 20 20 20 20 21 21
27 28 28 26 25 25 25 25 24 24 24 23 23 23 22 23 22 22 22 21 21 21 21 21 21 20 19 19 18 17 17 17 18 18 18 19 20 20 20 21 21 21 21

GFSGL_con_lsi_042.txt.gz
Lid_Strength_Index
13 14 14 14 15 15 15 15 16 16 14 15 16 16 16 15 15 16 16 16 16 16 15 16 15 15 14 14 15 14 14 14 16 14 15 16 17 16 16 14 14 13 13
13 13 13 14 14 15 16 15 15 14 14 14 15 16 16 17 17 16 16 16 15 16 16 16 16 14 15 15 15 15 15 14 15 16 14 16 18 16 15 16 15 14 14
13 13 14 15 15 15 14 15 14 14 14 14 14 15 16 15 16 16 16 16 15 15 15 16 16 16 15 15 15 15 15 14 15 15 15 14 17 17 17 17 16 15 15
13 14 14 14 14 14 14 14 15 14 14 14 14 14 14 14 14 16 16 15 15 15 15 15 14 15 14 14 15 15 14 15 15 15 15 15 17 17 16 16 18 16 16
13 14 14 14 14 14 14 14 14 14 14 14 14 14 14 14 14 15 16 15 15 16 15 15 14 14 12 12 13 14 14 14 14 14 15 15 16 18 17 16 15 15 16
13 13 13 13 12 12 12 12 13 13 13 14 14 14 15 14 12 12 13 15 15 16 16 16 15 15 14 12 11 11 11 13 14 13 14 14 14 15 15 15 16 16 17
12 12 12 12 12 12 12 13 14 14 14 14 14 14 15 14 12 12 12 14 15 15 15 16 16 15 15 15 14 12 12 11 10 11 13 13 12 12 13 14 15 15 15
13 14 13 13 14 14 14 15 15 15 16 16 16 16 17 16 13 13 13 15 16 16 16 16 16 16 16 16 16 15 15 13 12 12 11 11 10 10 11 11 13 14 13
13 13 14 15 17 16 17 17 17 18 18 19 18 18 19 19 16 15 15 17 17 17 16 16 16 16 15 14 16 16 15 14 11 9 9 9 8 7 7 10 13 14 16
14 14 15 16 20 19 18 19 19 20 19 19 20 20 20 21 17 16 16 17 18 18 17 16 15 16 14 13 15 16 17 16 14 13 11 11 9 9 8 8 10 13 14
16 16 17 17 19 20 20 20 21 21 21 22 21 21 21 20 20 16 15 16 17 18 18 17 16 14 14 13 13 14 15 13 12 12 11 11 11 11 10 9 8 10 12
17 18 20 21 21 20 22 21 21 22 23 23 23 22 21 20 18 17 15 14 14 16 17 17 17 15 14 13 13 13 13 12 13 12 11 11 11 11 10 10 9 8 9
23 24 24 22 21 20 22 22 22 22 23 23 23 23 22 20 19 16 14 14 13 15 16 15 13 13 12 13 13 13 14 15 15 14 13 10 10 9 9 9 8 8 9
28 25 23 22 21 20 20 20 22 22 23 23 23 23 22 20 18 17 16 16 14 14 13 14 14 12 12 13 14 14 15 15 15 14 12 10 9 9 9 8 9 8 9
24 22 22 21 22 21 20 20 20 19 19 20 19 19 19 19 17 14 13 13 13 12 11 12 14 17 18 18 18 16 15 16 16 14 12 9 9 9 9 9 9 9 10
23 21 21 21 21 20 21 21 16 15 15 15 14 16 16 14 13 12 12 11 10 9 12 13 13 13 14 15 16 16 15 15 14 12 11 10 10 9 9 9 9 9 11
26 22 21 20 21 21 21 22 23 20 15 16 15 15 14 14 14 13 12 12 11 12 15 15 15 15 14 14 15 16 16 15 14 13 11 11 10 9 9 9 10 10 11
27 23 22 21 21 22 22 22 22 23 23 22 18 17 16 15 14 13 14 15 20 18 18 18 17 17 16 14 15 16 15 15 15 14 12 9 9 8 9 9 10 11 11
25 24 24 22 21 22 22 23 23 23 23 22 22 19 19 16 15 16 16 21 21 21 19 19 17 16 14 13 14 14 15 14 14 13 11 9 9 8 9 9 10 10 11
27 23 21 24 23 23 24 24 23 23 23 23 23 22 21 19 22 22 22 22 22 21 20 20 18 16 15 13 12 13 14 13 12 11 10 9 9 9 9 10 10 11 12
27 26 23 23 25 25 25 25 24 24 24 24 23 22 15 21 23 22 22 22 22 22 21 20 19 17 16 15 13 12 11 11 11 11 12 12 11 11 10 10 11 12 13
28 28 27 25 25 26 27 26 25 25 24 24 24 23 18 23 23 22 22 21 21 21 20 20 19 18 17 16 16 15 14 13 12 12 12 12 12 12 12 12 13 14 15
28 28 25 26 28 27 28 30 28 26 26 26 25 25 24 24 23 22 21 21 20 20 20 20 20 18 17 16 15 15 15 15 13 13 13 13 13 13 13 14 14 15 15
29 26 26 28 30 30 31 31 29 28 28 28 28 26 25 25 24 23 22 21 20 20 20 20 20 19 18 16 16 16 14 14 14 13 13 14 15 15 15 16 16 17 17
27 26 27 30 34 32 32 32 30 31 31 29 28 27 26 25 25 24 23 23 21 21 21 20 19 19 18 16 16 16 15 15 15 14 14 15 16 16 17 17 17 18 19
24 26 28 30 32 33 34 34 32 31 31 29 28 27 26 25 25 24 24 23 22 21 20 20 20 20 19 16 15 13 13 13 15 15 15 16 17 17 17 18 18 19 19

GFSGL_con_lsi_045.txt.gz
Lid_Strength_Index
14 14 14 14 14 14 14 15 15 15 15 15 16 16 16 16 16 16 17 17 16 16 15 16 16 15 15 14 14 14 14 15 16 15 14 15 16 15 15 15 14 14 13
13 14 13 14 14 14 14 14 14 14 14 15 15 15 15 16 16 17 17 17 17 16 15 15 15 15 16 15 14 14 15 14 15 16 15 14 16 15 15 15 15 15 15
13 13 13 14 14 14 14 14 14 14 14 14 14 15 15 15 16 16 16 16 17 17 16 15 15 15 15 15 15 15 15 14 14 15 16 14 14 16 15 16 15 15 15
13 13 14 14 14 14 14 14 14 14 15 15 14 14 15 15 15 15 16 16 16 16 15 15 15 15 15 15 14 14 14 15 15 14 16 16 15 15 16 16 16 16 15
14 14 14 14 14 14 14 14 14 14 14 14 15 15 15 15 15 15 15 15 15 15 15 15 15 15 13 13 14 14 13 14 15 15 16 15 16 16 17 15 16 15 16
14 14 13 13 13 13 13 14 15 15 15 15 15 16 16 15 14 13 14 15 15 16 16 15 15 15 14 13 12 12 12 14 14 15 14 15 15 15 14 14 14 15 17
13 14 14 14 14 14 14 15 15 15 15 16 16 16 16 16 14 13 13 15 16 16 17 17 16 15 15 15 14 13 13 13 12 14 15 14 14 13 14 14 14 13 14
15 15 14 15 16 15 15 16 16 16 17 17 17 17 17 17 14 14 14 15 16 16 17 17 17 17 16 16 16 16 15 14 14 14 15 15 13 12 12 12 13 13 12
14 14 15 16 18 17 19 17 17 18 18 19 18 18 19 19 16 15 15 17 17 17 17 17 17 17 15 14 16 17 16 15 13 12 11 11 11 11 10 12 13 13 15
14 14 15 16 20 20 19 19 19 20 19 19 19 19 20 21 17 16 15 16 18 17 16 16 14 15 13 12 14 15 17 15 14 14 14 13 12 13 10 11 11 13 13
16 16 16 17 20 20 21 20 21 21 20 21 21 21 21 20 19 16 14 16 17 17 17 16 15 13 12 12 12 14 15 14 14 15 15 14 13 12 12 11 10 11 12
16 17 19 21 22 21 25 22 22 22 23 23 23 22 20 19 17 16 14 13 13 16 16 15 15 13 12 11 11 11 10 11 13 14 16 16 15 14 12 11 9 9 9
19 23 24 22 22 22 25 23 22 22 23 22 22 22 21 19 19 16 14 14 13 15 14 13 11 11 10 10 10 10 11 13 15 17 18 17 16 14 12 10 10 9 8
21 22 22 23 23 23 21 21 22 22 22 21 21 21 20 17 17 16 17 16 14 13 13 13 12 11 10 10 11 11 12 13 14 15 16 15 15 15 15 12 11 10 10
22 21 23 23 24 22 21 20 19 18 18 17 17 17 17 17 16 13 13 14 14 13 12 13 14 14 14 13 15 15 14 14 15 15 16 16 16 16 15 14 10 9 10
22 21 22 21 21 20 20 20 15 14 13 13 13 14 15 13 12 12 12 11 11 12 16 19 20 19 18 17 16 15 13 14 15 14 15 15 15 14 13 12 11 10 10
24 22 22 21 21 21 21 21 23 19 15 15 14 14 14 13 13 12 12 12 15 15 21 21 20 19 19 18 17 16 15 13 13 14 14 14 14 13 11 11 11 10 10
29 24 24 22 23 23 22 22 22 24 24 22 18 16 15 14 13 14 14 17 23 21 22 22 22 21 19 18 16 15 13 13 14 14 14 14 14 14 13 12 12 11 10
27 25 25 25 24 22 23 24 24 24 25 24 22 20 19 16 15 16 16 25 24 23 22 22 21 21 20 18 17 16 13 12 13 13 14 14 13 13 11 10 10 10 10
28 24 23 25 25 26 25 25 25 26 25 25 24 24 22 20 23 23 23 23 23 22 22 22 22 21 20 19 17 16 15 13 13 12 12 11 11 10 10 10 10 10 10
27 29 24 26 28 28 28 27 26 26 26 26 25 24 15 24 25 25 24 23 22 21 21 20 21 21 20 18 17 16 15 14 14 13 12 12 12 12 11 10 10 11 11
28 28 31 30 27 27 28 26 27 29 28 28 27 27 19 29 28 26 25 23 22 20 19 20 20 20 19 18 17 17 16 15 15 14 13 13 13 13 12 12 12 12 12
27 29 30 30 29 27 25 27 30 30 30 30 30 28 27 28 28 27 26 25 23 21 20 19 20 20 19 18 16 16 17 16 15 14 14 14 14 13 13 13 13 13 14
31 30 29 29 29 26 26 28 30 29 29 30 32 31 29 28 28 27 26 25 24 23 21 19 19 19 19 18 16 14 15 14 14 14 14 14 15 14 14 14 14 14 14
32 31 29 28 28 26 27 30 30 33 32 32 31 32 30 29 27 27 26 25 24 23 22 21 19 20 19 19 16 15 13 14 15 15 14 15 15 15 16 16 16 16 16
24 25 26 26 25 27 28 29 30 31 32 32 31 31 30 28 27 26 26 25 25 24 24 22 21 20 20 18 16 13 13 12 15 15 16 16 16 16 16 17 17 17 18

GFSGL_con_lsi_048.txt.gz
Lid_Strength_Index
15 15 15 15 15 15 15 15 14 14 14 14 14 15 15 15 15 16 16 16 16 16 16 16 16 16 16 15 14 14 14 15 17 16 15 14 14 13 13 13 14 15 14
14 14 14 14 14 14 15 15 14 15 15 15 15 15 15 15 15 15 16 16 16 16 16 16 16 14 15 15 15 15 15 15 16 18 16 16 15 14 13 14 13 14 15
14 14 14 14 14 14 14 14 14 15 15 15 15 15 15 15 15 15 15 16 16 16 16 16 15 15 15 15 15 16 15 15 15 16 17 15 15 14 14 14 14 14 14
14 14 14 14 14 14 14 14 15 15 16 16 16 16 16 16 16 16 15 16 16 15 15 15 15 15 15 16 15 15 15 15 15 16 16 16 16 14 14 15 15 14 15
14 14 14 13 14 14 15 15 15 16 16 16 16 16 16 16 15 15 15 15 15 15 15 15 15 14 13 13 14 15 15 16 16 16 17 16 16 16 16 14 14 14 14
14 14 13 14 14 14 15 16 16 16 17 16 16 16 16 15 13 12 12 14 14 15 16 15 15 15 15 14 13 13 13 15 16 16 16 16 16 15 14 14 15 14 15
13 14 15 15 16 16 16 17 17 17 16 17 16 16 17 16 13 12 12 14 14 15 15 16 16 15 16 16 15 14 14 13 13 15 17 17 16 15 15 15 14 14 14
15 17 16 17 18 17 17 17 17 17 17 17 17 17 17 16 14 13 13 14 15 16 16 16 16 16 16 16 16 16 15 15 14 14 15 16 15 15 15 16 16 16 14
16 16 16 17 18 17 19 18 18 18 18 19 17 18 19 18 15 14 14 15 16 16 16 16 16 16 15 13 15 16 15 15 12 11 11 11 10 10 11 13 16 16 17
15 14 16 17 20 20 19 20 19 20 18 18 18 19 19 20 16 14 14 15 17 17 16 15 14 15 13 12 13 15 16 15 14 14 14 13 12 13 11 12 13 16 17
16 16 16 18 20 21 22 21 22 22 20 22 21 20 20 19 19 15 13 14 15 16 15 15 15 12 12 11 11 13 14 13 13 13 13 13 13 13 13 12 12 13 15
17 17 19 21 21 19 26 24 24 25 25 24 23 22 19 18 16 14 12 11 11 15 15 15 14 12 11 10 10 10 9 9 11 13 14 15 15 15 13 12 12 12 12
21 22 22 21 20 20 25 22 23 25 25 23 21 21 20 17 17 13 11 11 11 12 13 12 11 11 10 11 11 10 11 13 14 15 15 15 15 14 14 14 13 13 14
25 22 20 20 20 20 20 20 24 24 23 21 21 20 18 16 15 15 14 13 11 12 12 12 12 13 13 13 15 13 13 13 14 14 15 14 13 13 14 14 15 15 15
22 20 20 20 21 20 20 20 20 19 18 19 17 16 16 17 15 11 11 12 12 12 13 16 19 19 19 18 18 17 16 15 15 15 15 15 14 15 15 14 14 15 16
21 19 20 20 20 20 20 20 15 13 11 11 11 12 14 12 11 11 10 11 11 13 18 23 22 21 21 20 20 19 18 17 16 15 14 14 15 15 15 14 13 14 14
22 20 20 20 22 22 22 21 22 18 14 13 13 13 12 12 12 11 11 12 15 17 26 24 23 22 22 21 20 20 19 17 16 15 13 13 13 14 14 14 13 13 12
23 22 23 23 24 24 23 23 23 23 23 22 17 15 14 13 13 13 13 17 23 23 29 24 24 23 22 22 20 20 19 17 16 14 13 13 14 14 14 14 14 13 11
24 24 25 25 25 25 24 24 24 26 26 25 23 19 20 16 15 16 16 29 25 24 23 23 22 22 21 21 20 19 18 17 16 14 13 12 12 13 13 12 12 11 10
27 25 24 27 26 27 26 26 26 27 26 27 25 24 24 23 28 27 28 28 26 24 23 22 21 20 20 20 20 19 18 18 16 15 14 13 12 11 11 11 10 10 9
26 26 24 28 28 28 29 28 27 27 27 26 25 26 16 24 28 29 27 26 26 25 23 22 21 20 19 19 19 19 18 17 16 15 15 14 13 13 12 12 12 13 13
25 25 27 28 25 27 28 28 28 28 27 26 26 29 19 31 30 31 29 28 26 25 24 22 21 20 19 19 18 18 17 17 16 16 15 14 13 13 13 13 13 13 13
24 24 23 24 25 26 28 29 29 28 26 27 29 29 32 31 32 31 29 28 27 26 25 24 22 21 19 18 18 17 16 16 16 16 16 15 14 14 14 14 14 14 13
26 26 27 29 31 31 29 28 27 25 25 27 31 31 32 32 32 31 29 28 27 26 25 24 23 22 20 19 18 17 15 13 15 16 16 16 15 15 15 15 15 15 15
26 27 30 30 30 27 27 27 26 25 27 29 29 32 34 31 31 31 30 29 27 26 26 25 24 23 22 21 20 18 15 12 15 15 16 16 16 16 16 16 17 16 16
24 25 25 25 26 27 27 26 25 25 27 28 29 31 32 31 30 30 30 29 27 27 27 25 24 25 23 21 20 16 12 10 13 15 16 16 17 17 17 17 17 17 18